sat.trackr.live / text

‹ back to catalog

STARLINK-5368

NORAD 54840 · 2022-177W

PAYLOAD ACTIVE UNKNOWN

§ Identity

Operator
Country
US
Launch date
2022-12-28
Launch site
AFETR
Launch vehicle
Mass (kg)
RCS (m²)

Purposes: comms

External: N2YO · Heavens-Above · Gunter

§ Orbital elements

Epoch: 2026-09-20T21:06:14.748768Z

Period
94.27 min
Inclination
43.0007°
Eccentricity
0.0000952
Mean motion
15.27576677 rev/d
Perigee alt
482.4 km
Apogee alt
483.7 km
Semi-major
6,861.2 km
B*
-2.4190e-6
RAAN
110.4384°
Arg perigee
268.7720°
Mean anomaly
91.3023°
Rev number
20,681

§ Raw data

STARLINK-53681 54840U 22177W   26263.87933737 -.00000328  00000+0 -24190-5 0  99912 54840  43.0007 110.4384 0000952 268.7720  91.3023 15.27576677206814

JSON: /api/v1/satellites/54840 · /tle

For live sub-satellite position, see the globe view (requires WebGL).

§ Visibility from observer

Set your observer location to see the next 7 days of passes ≥ 10°. The values pass through the URL so the page stays shareable.

No JS? Fill the form by hand. The geolocation button needs JavaScript.